THORAD DELTA 1 DEB

Satellite information

Favourite Embed

Satellite Type and Status

DEBRISIN ORBIT

Key statistics

Satellite THORAD DELTA 1 DEB at a glance.

Uptime

18440

Days in orbit

Revolutions

≈ 12.4

Per day

Orbit

SSO

Sun Synchronous Orbit

Inclination

102.2

Latest

Satellite identification and parameters

Extended collection of information and parameters for THORAD DELTA 1 DEB.

Object identification

Identified? True

Debris? True

Object name: THORAD DELTA 1 DEB

International designator: 1974-089GQ

Object number (NORAD): 42623

Object ID (CCSDS): 42623

Country: UNITED STATES OF AMERICA (US)

Current information (Y/N): Y

RCS size: SMALL

Orbital parameters

Period: 115.775 minutes

Inclination: 102.223 deg

SMA: 7868.72 km

Apoapsis: 1546.817 km

Periapsis: 1434.353 km

RAAN: 121.0626 deg

Eccentricy: 0.0071463

Argument of periapsis: 231.4188 deg

Mean anomaly: 128.046 deg

Mean motion: 12.43788788 rev/day

Mean motion (dot): -0.00000029 rev/day2

B* drag term: 0.00012404 1/REarth

Two-line elements (TLE)

Creation date: April 27, 2025, 6:35 p.m.

Reference frame: TEME

Reference center: EARTH

Epoch: April 27, 2025, 5:32 a.m. UTC

TLE line 0: 0 THORAD DELTA 1 DEB

TLE line 1: 1 42623U 74089GQ 25117.23082873 -.00000029 00000-0 12404-3 0 9990

TLE line 2: 2 42623 102.2230 121.0626 0071463 231.4188 128.0460 12.43788788180540

Live tracking on map

Real-time ground track for satellite THORAD DELTA 1 DEB.

In-orbit conjunctions

A list of the most updated potential collisions computed for object THORAD DELTA 1 DEB.

Target Orbit TCA Probability of collision Miss distance Type
COSMOS 1635 LEO 2024-07-31 22:02:29 0.0002227487 174.0 (m) PAYLOAD

Associated space launch

Meteorological satellite using radiometric imaging

THORAD DELTA 1 DEB was lifted into orbit during the mission ‘Delta 2310 | NOAA 4’, on board a Delta 2310 space rocket.

The launch took place on Nov. 15, 1974, 5:11 p.m. from Space Launch Complex 2W.

For more information about the launch, click the button.

Launch to space Delta 2310 | NOAA 4
Delta 2310 | NOAA 4

Agency: N/A

Status: Launch Successful

Launch date: Nov. 15, 1974, 5:11 p.m. UTC

Rocket: Delta 2310

Launch pad: Space Launch Complex 2W

Location: Vandenberg SFB, CA, USA

...

Latest news about this satellite

There are no fresh news available about this satellite. Check back as we update our databases every day.


Newsletter sign-up

Weekly statistics, charts and insights to help you stay on top of the space industry.